{"data":{"norad_id":55607,"intl_designator":"2023-020AQ","name":"STARLINK-5700","alt_names":[],"object_type":"PAYLOAD","status":"ACTIVE","operator":null,"country":"US","launch_date":"2023-02-12","launch_site_code":"AFETR","launch_vehicle":null,"mission":null,"orbit_class":"UNKNOWN","rcs_meters":null,"size_class":null,"mass_kg":null,"dimensions":null,"purposes":["comms"],"wikipedia_slug":null,"has_3d_model":false,"image_url":null,"decayed_at":null,"tle_current":{"epoch":"2026-05-25T02:21:35.318880Z","epoch_age_seconds":60437,"freshness":"FRESH","line1":"1 55607U 23020AQ  26145.09832545 -.00000800  00000+0 -19538-4 0  9993","line2":"2 55607  43.0027 282.8366 0002020 279.7959  80.2664 15.27583561180725","mean_motion":15.27583561,"eccentricity":0.000202,"inclination_deg":43.0027,"raan_deg":282.8366,"arg_perigee_deg":279.7959,"mean_anomaly_deg":80.2664,"bstar":-1.9538e-5,"rev_number":18072,"period_min":94.266528965351,"perigee_km":481.65247570781,"apogee_km":484.4243905828,"semimajor_km":6861.1754331453,"source":"CELESTRAK","updated_at":"2026-05-25T13:38:17.842605Z"}}}